Time,TemperatureF,DewpointF,PressureIn,WindDirection,WindDirectionDegrees,WindSpeedMPH,WindSpeedGustMPH,Humidity,HourlyPrecipIn,Conditions,Clouds,dailyrainin,SolarRadiationWatts/m^2,SoftwareType,DateUTC
2013-02-01 00:32:00,8.0,0.0,-100.00,WNW,296,6.0,13.0,69,0.00,,,0.00,0.000000,,2013-02-01 05:32:00,
2013-02-01 00:42:00,8.0,0.0,-100.00,WNW,296,6.0,13.0,69,0.00,,,0.00,0.000000,,2013-02-01 05:42:00,
2013-02-01 00:52:00,8.0,0.0,-100.00,WNW,296,6.0,13.0,69,0.00,,,0.00,0.000000,,2013-02-01 05:52:00,
2013-02-01 01:02:00,8.0,0.0,-100.00,WNW,296,6.0,13.0,69,0.00,,,0.00,0.000000,,2013-02-01 06:02:00,
2013-02-01 01:32:00,8.0,0.0,-100.00,WNW,300,6.0,12.0,69,0.00,,,0.00,0.000000,,2013-02-01 06:32:00,
2013-02-01 01:42:00,8.0,0.0,-100.00,WNW,300,6.0,12.0,69,0.00,,,0.00,0.000000,,2013-02-01 06:42:00,
2013-02-01 01:52:00,8.0,0.0,-100.00,WNW,300,6.0,12.0,69,0.00,,,0.00,0.000000,,2013-02-01 06:52:00,
2013-02-01 02:02:00,8.0,0.0,-100.00,WNW,300,6.0,12.0,69,0.00,,,0.00,0.000000,,2013-02-01 07:02:00,
2013-02-01 02:32:00,9.0,0.0,-100.00,NW,304,6.0,16.0,65,0.00,,,0.00,0.000000,,2013-02-01 07:32:00,
2013-02-01 02:42:00,9.0,0.0,-100.00,NW,304,6.0,16.0,65,0.00,,,0.00,0.000000,,2013-02-01 07:42:00,
2013-02-01 02:52:00,9.0,0.0,-100.00,NW,304,6.0,16.0,65,0.00,,,0.00,0.000000,,2013-02-01 07:52:00,
2013-02-01 03:01:00,9.0,0.0,-100.00,NW,304,6.0,16.0,65,0.00,,,0.00,0.000000,,2013-02-01 08:01:00,
2013-02-01 03:32:00,8.0,-2.0,-100.00,WNW,303,7.0,13.0,64,0.00,,,0.00,0.000000,,2013-02-01 08:32:00,
2013-02-01 03:42:00,8.0,-2.0,-100.00,WNW,303,7.0,13.0,64,0.00,,,0.00,0.000000,,2013-02-01 08:42:00,
2013-02-01 03:52:00,8.0,-2.0,-100.00,WNW,303,7.0,13.0,64,0.00,,,0.00,0.000000,,2013-02-01 08:52:00,
2013-02-01 04:01:00,8.0,-2.0,-100.00,WNW,303,7.0,13.0,64,0.00,,,0.00,0.000000,,2013-02-01 09:01:00,
2013-02-01 04:32:00,8.0,-2.0,-100.00,NW,306,6.0,14.0,62,0.00,,,0.00,0.000000,,2013-02-01 09:32:00,
2013-02-01 04:42:00,8.0,-2.0,-100.00,NW,306,6.0,14.0,62,0.00,,,0.00,0.000000,,2013-02-01 09:42:00,
2013-02-01 04:52:00,8.0,-2.0,-100.00,NW,306,6.0,14.0,62,0.00,,,0.00,0.000000,,2013-02-01 09:52:00,
2013-02-01 05:01:00,8.0,-2.0,-100.00,NW,306,6.0,14.0,62,0.00,,,0.00,0.000000,,2013-02-01 10:01:00,
2013-02-01 05:21:00,8.0,-3.0,-100.00,NW,313,6.0,15.0,61,0.00,,,0.00,0.000000,,2013-02-01 10:21:00,
2013-02-01 05:32:00,8.0,-3.0,-100.00,NW,313,6.0,15.0,61,0.00,,,0.00,0.000000,,2013-02-01 10:32:00,
2013-02-01 05:43:00,8.0,-3.0,-100.00,NW,313,6.0,15.0,61,0.00,,,0.00,0.000000,,2013-02-01 10:43:00,
2013-02-01 05:53:00,8.0,-3.0,-100.00,NW,313,6.0,15.0,61,0.00,,,0.00,0.000000,,2013-02-01 10:53:00,
2013-02-01 06:02:00,8.0,-3.0,-100.00,NW,313,6.0,15.0,61,0.00,,,0.00,0.000000,,2013-02-01 11:02:00,
2013-02-01 06:32:00,8.0,-3.0,-100.00,NW,310,6.0,15.0,61,0.00,,,0.00,0.000000,,2013-02-01 11:32:00,
2013-02-01 06:42:00,8.0,-3.0,-100.00,NW,310,6.0,15.0,61,0.00,,,0.00,0.000000,,2013-02-01 11:42:00,
2013-02-01 06:53:00,8.0,-3.0,-100.00,NW,310,6.0,15.0,61,0.00,,,0.00,0.000000,,2013-02-01 11:53:00,
2013-02-01 07:02:00,8.0,-3.0,-100.00,NW,310,6.0,15.0,61,0.00,,,0.00,0.000000,,2013-02-01 12:02:00,
2013-02-01 07:23:00,7.0,-3.0,-100.00,WNW,292,6.0,12.0,64,0.00,,,0.00,0.000000,,2013-02-01 12:23:00,
2013-02-01 07:32:00,7.0,-3.0,-100.00,WNW,292,6.0,12.0,64,0.00,,,0.00,0.000000,,2013-02-01 12:32:00,
2013-02-01 07:42:00,7.0,-3.0,-100.00,WNW,292,6.0,12.0,64,0.00,,,0.00,0.000000,,2013-02-01 12:42:00,
2013-02-01 07:52:00,7.0,-3.0,-100.00,WNW,292,6.0,12.0,64,0.00,,,0.00,0.000000,,2013-02-01 12:52:00,
2013-02-01 08:02:00,7.0,-3.0,-100.00,WNW,292,6.0,12.0,64,0.00,,,0.00,0.000000,,2013-02-01 13:02:00,
2013-02-01 08:03:00,3.0,-5.0,-100.00,WSW,247,5.0,14.0,68,0.00,,,0.00,0.000000,,2013-02-01 13:03:00,
2013-02-01 08:33:00,3.0,-5.0,-100.00,WSW,247,5.0,14.0,68,0.00,,,0.00,0.000000,,2013-02-01 13:33:00,
2013-02-01 08:43:00,3.0,-5.0,-100.00,WSW,247,5.0,14.0,68,0.00,,,0.00,0.000000,,2013-02-01 13:43:00,
2013-02-01 08:53:00,3.0,-5.0,-100.00,WSW,247,5.0,14.0,68,0.00,,,0.00,0.000000,,2013-02-01 13:53:00,
2013-02-01 09:32:00,3.0,-4.0,-100.00,WSW,249,7.0,11.0,73,0.00,,,0.00,27.000000,,2013-02-01 14:32:00,
2013-02-01 09:42:00,3.0,-4.0,-100.00,WSW,249,7.0,11.0,73,0.00,,,0.00,27.000000,,2013-02-01 14:42:00,
2013-02-01 09:53:00,3.0,-4.0,-100.00,WSW,249,7.0,11.0,73,0.00,,,0.00,27.000000,,2013-02-01 14:53:00,
2013-02-01 10:02:00,3.0,-4.0,-100.00,WSW,249,7.0,11.0,73,0.00,,,0.00,27.000000,,2013-02-01 15:02:00,
2013-02-01 10:03:00,7.0,-1.0,-100.00,West,263,10.0,13.0,68,0.00,,,0.00,197.000000,,2013-02-01 15:03:00,
2013-02-01 10:33:00,7.0,-1.0,-100.00,West,263,10.0,13.0,68,0.00,,,0.00,197.000000,,2013-02-01 15:33:00,
2013-02-01 10:42:00,7.0,-1.0,-100.00,West,263,10.0,13.0,68,0.00,,,0.00,197.000000,,2013-02-01 15:42:00,
2013-02-01 10:52:00,7.0,-1.0,-100.00,West,263,10.0,13.0,68,0.00,,,0.00,197.000000,,2013-02-01 15:52:00,
2013-02-01 11:33:00,8.0,-4.0,-100.00,West,259,9.0,16.0,58,0.00,,,0.00,379.000000,,2013-02-01 16:33:00,
2013-02-01 11:43:00,8.0,-4.0,-100.00,West,259,9.0,16.0,58,0.00,,,0.00,379.000000,,2013-02-01 16:43:00,
2013-02-01 11:52:00,8.0,-4.0,-100.00,West,259,9.0,16.0,58,0.00,,,0.00,379.000000,,2013-02-01 16:52:00,
2013-02-01 12:02:00,8.0,-4.0,-100.00,West,259,9.0,16.0,58,0.00,,,0.00,379.000000,,2013-02-01 17:02:00,
2013-02-01 12:32:00,11.0,-3.0,-100.00,West,261,8.0,15.0,53,0.00,,,0.00,549.000000,,2013-02-01 17:32:00,
2013-02-01 12:42:00,11.0,-3.0,-100.00,West,261,8.0,15.0,53,0.00,,,0.00,549.000000,,2013-02-01 17:42:00,
2013-02-01 12:53:00,11.0,-3.0,-100.00,West,261,8.0,15.0,53,0.00,,,0.00,549.000000,,2013-02-01 17:53:00,
2013-02-01 13:02:00,11.0,-3.0,-100.00,West,261,8.0,15.0,53,0.00,,,0.00,549.000000,,2013-02-01 18:02:00,
2013-02-01 13:23:00,13.0,-4.0,-100.00,West,263,8.0,12.0,46,0.00,,,0.00,607.000000,,2013-02-01 18:23:00,
2013-02-01 13:32:00,13.0,-4.0,-100.00,West,263,8.0,12.0,46,0.00,,,0.00,607.000000,,2013-02-01 18:32:00,
2013-02-01 13:42:00,13.0,-4.0,-100.00,West,263,8.0,12.0,46,0.00,,,0.00,607.000000,,2013-02-01 18:42:00,
2013-02-01 13:53:00,13.0,-4.0,-100.00,West,263,8.0,12.0,46,0.00,,,0.00,607.000000,,2013-02-01 18:53:00,
2013-02-01 14:02:00,13.0,-4.0,-100.00,West,263,8.0,12.0,46,0.00,,,0.00,607.000000,,2013-02-01 19:02:00,
2013-02-01 14:32:00,13.0,-5.0,-100.00,WSW,255,7.0,12.0,44,0.00,,,0.00,599.000000,,2013-02-01 19:32:00,
2013-02-01 14:42:00,13.0,-5.0,-100.00,WSW,255,7.0,12.0,44,0.00,,,0.00,599.000000,,2013-02-01 19:42:00,
2013-02-01 14:52:00,13.0,-5.0,-100.00,WSW,255,7.0,12.0,44,0.00,,,0.00,599.000000,,2013-02-01 19:52:00,
2013-02-01 15:02:00,13.0,-5.0,-100.00,WSW,255,7.0,12.0,44,0.00,,,0.00,599.000000,,2013-02-01 20:02:00,
2013-02-01 15:22:00,13.0,-6.0,-100.00,WSW,243,9.0,14.0,42,0.00,,,0.00,505.000000,,2013-02-01 20:22:00,
2013-02-01 15:32:00,13.0,-6.0,-100.00,WSW,243,9.0,14.0,42,0.00,,,0.00,505.000000,,2013-02-01 20:32:00,
2013-02-01 15:42:00,13.0,-6.0,-100.00,WSW,243,9.0,14.0,42,0.00,,,0.00,505.000000,,2013-02-01 20:42:00,
2013-02-01 15:52:00,13.0,-6.0,-100.00,WSW,243,9.0,14.0,42,0.00,,,0.00,505.000000,,2013-02-01 20:52:00,
2013-02-01 16:02:00,13.0,-6.0,-100.00,WSW,243,9.0,14.0,42,0.00,,,0.00,505.000000,,2013-02-01 21:02:00,
2013-02-01 16:32:00,12.0,-6.0,-100.00,WSW,256,7.0,12.0,44,0.00,,,0.00,382.000000,,2013-02-01 21:32:00,
2013-02-01 16:42:00,12.0,-6.0,-100.00,WSW,256,7.0,12.0,44,0.00,,,0.00,382.000000,,2013-02-01 21:42:00,
2013-02-01 16:52:00,12.0,-6.0,-100.00,WSW,256,7.0,12.0,44,0.00,,,0.00,382.000000,,2013-02-01 21:52:00,
2013-02-01 17:02:00,12.0,-6.0,-100.00,WSW,256,7.0,12.0,44,0.00,,,0.00,382.000000,,2013-02-01 22:02:00,
2013-02-01 17:32:00,11.0,-6.0,-100.00,WSW,238,7.0,12.0,46,0.00,,,0.00,219.000000,,2013-02-01 22:32:00,
2013-02-01 17:42:00,11.0,-6.0,-100.00,WSW,238,7.0,12.0,46,0.00,,,0.00,219.000000,,2013-02-01 22:42:00,
2013-02-01 17:52:00,11.0,-6.0,-100.00,WSW,238,7.0,12.0,46,0.00,,,0.00,219.000000,,2013-02-01 22:52:00,
2013-02-01 18:01:00,11.0,-6.0,-100.00,WSW,238,7.0,12.0,46,0.00,,,0.00,219.000000,,2013-02-01 23:01:00,
2013-02-01 18:32:00,7.0,-9.0,-100.00,WSW,254,6.0,10.0,48,0.00,,,0.00,20.000000,,2013-02-01 23:32:00,
2013-02-01 18:42:00,7.0,-9.0,-100.00,WSW,254,6.0,10.0,48,0.00,,,0.00,20.000000,,2013-02-01 23:42:00,
2013-02-01 18:52:00,7.0,-9.0,-100.00,WSW,254,6.0,10.0,48,0.00,,,0.00,20.000000,,2013-02-01 23:52:00,
2013-02-01 19:02:00,7.0,-9.0,-100.00,WSW,254,6.0,10.0,48,0.00,,,0.00,20.000000,,2013-02-02 00:02:00,
2013-02-01 19:32:00,4.0,-9.0,-100.00,West,264,5.0,7.0,55,0.00,,,0.00,0.000000,,2013-02-02 00:32:00,
2013-02-01 19:42:00,4.0,-9.0,-100.00,West,264,5.0,7.0,55,0.00,,,0.00,0.000000,,2013-02-02 00:42:00,
2013-02-01 19:52:00,4.0,-9.0,-100.00,West,264,5.0,7.0,55,0.00,,,0.00,0.000000,,2013-02-02 00:52:00,
2013-02-01 20:02:00,4.0,-9.0,-100.00,West,264,5.0,7.0,55,0.00,,,0.00,0.000000,,2013-02-02 01:02:00,
2013-02-01 20:32:00,3.0,-10.0,-100.00,West,262,3.0,9.0,54,0.00,,,0.00,0.000000,,2013-02-02 01:32:00,
2013-02-01 20:42:00,3.0,-10.0,-100.00,West,262,3.0,9.0,54,0.00,,,0.00,0.000000,,2013-02-02 01:42:00,
2013-02-01 20:52:00,3.0,-10.0,-100.00,West,262,3.0,9.0,54,0.00,,,0.00,0.000000,,2013-02-02 01:52:00,
2013-02-01 21:01:00,3.0,-10.0,-100.00,West,262,3.0,9.0,54,0.00,,,0.00,0.000000,,2013-02-02 02:01:00,
2013-02-01 21:32:00,-3.0,-13.0,-100.00,WSW,252,2.0,4.0,61,0.00,,,0.00,0.000000,,2013-02-02 02:32:00,
2013-02-01 21:42:00,-3.0,-13.0,-100.00,WSW,252,2.0,4.0,61,0.00,,,0.00,0.000000,,2013-02-02 02:42:00,
2013-02-01 21:52:00,-3.0,-13.0,-100.00,WSW,252,2.0,4.0,61,0.00,,,0.00,0.000000,,2013-02-02 02:52:00,
2013-02-01 22:02:00,-3.0,-13.0,-100.00,WSW,252,2.0,4.0,61,0.00,,,0.00,0.000000,,2013-02-02 03:02:00,
2013-02-01 22:22:00,-3.0,-12.0,-100.00,West,281,2.0,6.0,65,0.00,,,0.00,0.000000,,2013-02-02 03:22:00,
2013-02-01 22:32:00,-3.0,-12.0,-100.00,West,281,2.0,6.0,65,0.00,,,0.00,0.000000,,2013-02-02 03:32:00,
2013-02-01 22:42:00,-3.0,-12.0,-100.00,West,281,2.0,6.0,65,0.00,,,0.00,0.000000,,2013-02-02 03:42:00,
2013-02-01 22:52:00,-3.0,-12.0,-100.00,West,281,2.0,6.0,65,0.00,,,0.00,0.000000,,2013-02-02 03:52:00,
2013-02-01 23:01:00,-3.0,-12.0,-100.00,West,281,2.0,6.0,65,0.00,,,0.00,0.000000,,2013-02-02 04:01:00,
2013-02-01 23:03:00,0.0,-11.0,-100.00,SW,219,1.0,4.0,60,0.00,,,0.00,0.000000,,2013-02-02 04:03:00,
2013-02-01 23:32:00,0.0,-11.0,-100.00,SW,219,1.0,4.0,60,0.00,,,0.00,0.000000,,2013-02-02 04:32:00,
2013-02-01 23:42:00,0.0,-11.0,-100.00,SW,219,1.0,4.0,60,0.00,,,0.00,0.000000,,2013-02-02 04:42:00,
2013-02-01 23:52:00,0.0,-11.0,-100.00,SW,219,1.0,4.0,60,0.00,,,0.00,0.000000,,2013-02-02 04:52:00,